Location: Wellington
(41.3000°S, 174.7830°E)
Time: 13:19:28
(UTC+13:00)

ISS - Visible Passes

Search period start: 24 January 2019 00:00
Search period end: 03 February 2019 00:00
Orbit: 404 x 410 km, 51.6° (Epoch: 24 January)

Date Brightness Start Highest point End Pass type
(mag) Time Alt. Az. Time Alt. Az. Time Alt. Az.
26 Jan -1.0 05:42:04 10° NNE 05:43:13 11° NE 05:44:21 10° ENE visible
28 Jan -2.1 05:33:46 10° NNW 05:36:39 28° NE 05:39:34 10° ESE visible
29 Jan -1.4 04:44:01 12° NNE 04:45:26 15° NE 04:47:28 10° E visible
30 Jan -3.7 05:27:29 14° NW 05:30:13 71° NE 05:33:34 10° ESE visible
31 Jan -2.8 04:38:10 32° NNE 04:38:51 36° NE 04:41:59 10° ESE visible
01 Feb -1.3 03:48:46 17° ENE 03:48:46 17° ENE 03:50:06 10° E visible
01 Feb -3.2 05:21:29 17° WNW 05:23:53 49° SSW 05:27:10 10° SE visible
02 Feb -3.9 04:32:02 69° WNW 04:32:23 87° SW 04:35:46 10° SE visible
